Погода Большой Шантар

Погода Большой Шантар : погода сейчас, прогноз погоды и архив. Всё, что Вы хотите узнать о погоде Большой Шантар!

Хотите узнать прогноз погоды Большой Шантар? Тогда Вам сюда: Погода Большой Шантар

Поиск расширенной информации на нашем сайте:

Другие новости

Новости СМИ2

Главная страница сайта

Новости сайта

02.10.2013

Напоминаем, что на нашем новом сайте вы можете получить высокодетализированные прогнозы погоды по пунктам России, СНГ и мира (включающие важные для авиации метеовеличины, такие как направление и скорость ветра, видимость, явления погоды, количество и форма облачности, нижняя и верхняя граница облачности), а также ознакомиться с разнообразными материалами по авиационной метеорологии и подборкой полезных ссылок на эту тему.

Сайт Метеоцентр.Азия посвящён разработке технологий оптимизации авиаметеорологического обслуживания, включая проектирование и перспективное создание нескольких автоматизированных авиаметеорологических систем:
- система выпуска высокодетальных прогностических карт явлений погоды для нижнего воздушного пространства по России и ближнему зарубежью;
- система верификации прогнозов TAF (выпускаемых синоптиками официальных АМСГ РФ и ближнего зарубежья) и AUTOTAF (выпускаемых сайтом Метеоцентр.Азия) - выявление ошибок, онлайн-сопоставление с фактической погодой METAR, автоматическое внесение коррективов в прогнозы при резком отклонении фактической погоды от прогноза, подсчёт оправдываемости прогнозов по элементам и в целом;
- система обработки, анализа и отображения авиаметеорологической информации для применения провайдерами метеорологической информации.

Рекомендуем: мобильные электрокардиографы

Погода Большой Шантар - сегодня

Время (UTC), дата Ветер
(°,м/с) 
Видим.   Явления Облачность Т
(°С)
Тd
(°С)
f(%) Тe
(°С)
Pmin
(гПа)
dP
(гПа)
Po
(мм)
O2
(г/м3)
Тmin Tmax R s Состояние
почвы
18 27.04.17 020 (С) 20000 м  {туман}  10/10 600 м 
[Sc]
-1.9 -2.5 96 -3  1001.2  -0.7  750  305           
21 27.04.17 040 (СВ) 20000 м    10/10 200 м 
[St]
-1.2 -2.2 93 -2  1000.9  -0.7  750  304  -3.8      28  мокрый или
старый снег
50-90% 
00 28.04.17 070 (В) 20000 м    10/10 600 м 
[Sc]
+0.1 -2.7 81 -1  1000.9  750  302           
03 28.04.17 190 (Ю) 20000 м    10/10 600 м 
[Sc]
+0.8 -2.1 81 -2  1000.7  -0.2  750  301           
06 28.04.17 200 (Ю) 20000 м    6/6 600 м 
[St]
+0.5 -1.3 88 -1  999.9  -0.8  749  301           
09 28.04.17 240 (ЮЗ) 20000 м    3/3 600 м 
[Sc]
-1.1 -2.3 92 -2  999.7  -0.3  749  303    +1.7       
12 28.04.17 200 (Ю) 20000 м    8/5 600 м верхняя 
[St|Ci fib]
-3.2 -3.9 95 -3  999.8  0.2  749  306           
15 28.04.17 360 (С) 0200 м  слаб. морось{туман}  ?/?  
-3.8 -4.2 97 -3  999.4  -0.4  749  306           
18 28.04.17 030 (СВ) 0200 м  слаб. снег{морось}  ?/?  
-5.1 -5.5 97 -5  999  -0.4  748  308           
21 28.04.17 190 (Ю) 0500 м  туман{снег}  ?/?  
-5.7 -6.2 96 -5  999.4  0.4  749  309  -6    0.3  27  мокрый или
старый снег
50-90% 
00 29.04.17 240 (ЮЗ) 2000 м  в посл. час туман{снег}  8/8 600 м 
[St]
-3.7 -4.1 97 -3  999.6  0.2  749  306           
03 29.04.17 190 (Ю) 20000 м    9/9 300 м 
[St]
-2.2 -2.7 96 -3  1000.4  0.8  749  305           
06 29.04.17 200 (Ю) 20000 м    10/6 600 м кучево-дожд., средняя, верхняя 
[Cb cap|Ac lent|Ci ing]
-0.7 -2 91 -2  1001.8  1.4  751  303           
09 29.04.17 070 (В) 10 км  слаб. ливневой снег  10/10 600 м кучево-дожд. 
[Cb cap]
-0.1 -1.6 90 -2  1003.9  2.1  752  303    +2.2  0.2     
12 29.04.17 030 (СВ) 1000 м  ливневой снег  10/10 600 м кучево-дожд. 
[Cb cap]
-1.1 -1.6 96 -4  1005.5  1.6  753  305           
15 29.04.17 030 (СВ) 1000 м  ливневой снег  10/10 600 м кучево-дожд. 
[Cb cap]
-1.7 -2.3 96 -4  1006.6  754  306           
18 29.04.17 040 (СВ) 4000 м  слаб. ливневой снег  10/10 600 м кучево-дожд. 
[Cb cap]
-2.3 -3 95 -4  1007.6  755  307           
21 29.04.17 040 (СВ) 4000 м  слаб. ливневой снег  10/8 600 м кучево-дожд., средняя 
[Cb cap|Ac As]
-2.5 -3.7 91 -5  1008.8  1.2  756  308  -2.7    30  неравномерный
сухой снег
100% 
00 30.04.17 030 (СВ) 10 км  слаб. ливневой снег  10/10 600 м кучево-дожд. 
[Cb cap]
-0.5 -2.1 89 -2  1009.8  1.1  757  306           
03 30.04.17 040 (СВ) 20000 м  {ливн. осадки}  10/3 600 м средняя, верхняя 
[Sc|As trans|Cs]
+2.1 -1.6 76 1010.4  0.6  757  303           
06 30.04.17 200 (Ю) 20000 м  {ливн. осадки}  8/3 300 м средняя, верхняя 
[St|Ac trans|Cc]
+0.2 -1.5 88 -2  1011  0.5  757  305           
09 30.04.17 210 (ЮЗ) 20000 м    8/4 600 м средняя, верхняя 
[Sc|Ac lent|Cc]
-0.9 -2 92 -2  1012  758  307    +3.1  0.0     
12 30.04.17 170 (Ю) 0500 м  туман  ?/?  
-2.1 -2.6 96 -2  1013.3  1.2  759  309           
15 30.04.17 230 (ЮЗ) 0500 м  туман  ?/?  
-2.3 -2.5 99 -2  1013.5  0.2  759  309           
18 30.04.17 260 (З) 0200 м  туман  ?/?  
-2.7 -3 98 -4  1013.1  -0.4  759  309           
Время (UTC), дата Ветер
(°,м/с) 
Видим.   Явления Облачность Т
(°С)
Тd
(°С)
f(%) Тe
(°С)
Pmin
(гПа)
dP
(гПа)
Po
(мм)
O2
(г/м3)
Тmin Tmax R s Состояние
почвы

Для получения пояснительной информации подведите курсор к названию столбца.

ПОГОДА Большой Шантар - архив

Всё, что Вы хотите узнать о погоде Большой Шантар - удобно и подробно!

Выберите нужную дату (начиная с 1 января 2015* года) и нажмите кнопку "Найти".
Будут отображены архивные сводки погоды по пункту Большой Шантар, начиная с указанной даты.


Отображать данные в формате CSV (для использования в таблицах Excel)


Внимание! Наш архив погоды предназначен исключительно для личного некоммерческого использования в познавательных целях. Если Вам необходимы официальные справки о состоянии погоды (для производственных, юридических, коммерческих и т.п. целей), обращайтесь в органы Росгидромета.

*Примечание: данная дата относится к архиву по метеостанциям СССР (Россия, СНГ, Балтия).
Архив по метеостанциям Зарубежной Европы и Азии (кроме Китая) хранится 10 дней, по другим регионам земного шара (Китай, Африка, Америка, Австралия, Океания) - 1 день.

Большой Шантар - район местоположения метеостанции


Название, широта, долгота, высота метеостанции:
Большой Шантар 54.8°ш. 137.5°д. 21 м над ур. моря [Российская Федерация]

Дополнительная информация

В oтличие oт бoльшинства пoгoдных сайтoв мы публикуем пoдрoбную метеoинфoрмацию в детальнoм прoфессиoнальнoм фoрмате.

Характеристики температуры и влажнoсти вoздуха измеряются на высoте 2 м в тени вдали oт зданий и деревьев.
Скoрoсть ветра измеряется на высoте 10 м (на урoвне рoста челoвека скoрoсть ветра ниже в 1.5-2 раза). Если метеoстанция нахoдится в гoрoде или в лесу, тo скoрoсть ветра занижена на 2-4 м/с пo сравнению с oткрытым местoм. Скoрoсть ветра над акватoриями крупных рек и oзёр, а также на вершинах хoлмoв на 2-5 м/с выше, чем в oбычных услoвиях.
Атмoсфернoе давление в разных тoчках местнoсти мoжет значительнo oтличаться oт давления на метеoстанции, в зависимoсти oт услoвий рельефа (при пoдъёме на 10 м давление пoнижается примернo на 1 мм рт.ст.).